TimeCST,TemperatureF,Dew PointF,Humidity,Sea Level PressureIn,VisibilityMPH,Wind Direction,Wind SpeedMPH,Gust SpeedMPH,PrecipitationIn,Events,Conditions,WindDirDegrees,DateUTC
12:53 AM,46.9,36.0,66,29.90,10.0,NNW,13.8,-,N/A,,Mostly Cloudy,330,2011-11-16 06:53:00
1:53 AM,44.1,32.0,63,29.91,10.0,NNW,20.7,25.3,N/A,,Partly Cloudy,340,2011-11-16 07:53:00
2:53 AM,42.1,30.9,65,29.92,10.0,NNW,19.6,25.3,N/A,,Clear,340,2011-11-16 08:53:00
3:53 AM,39.9,28.9,65,29.93,10.0,North,18.4,-,N/A,,Clear,350,2011-11-16 09:53:00
4:53 AM,39.0,26.1,60,29.95,10.0,North,16.1,-,N/A,,Clear,360,2011-11-16 10:53:00
5:53 AM,37.9,25.0,60,29.98,10.0,NNW,19.6,26.5,N/A,,Clear,340,2011-11-16 11:53:00
6:53 AM,37.0,23.0,57,30.03,10.0,NNW,20.7,-,N/A,,Clear,340,2011-11-16 12:53:00
7:53 AM,36.0,21.9,57,30.06,10.0,North,18.4,-,N/A,,Clear,350,2011-11-16 13:53:00
8:53 AM,39.0,23.0,53,30.08,10.0,NNW,20.7,26.5,N/A,,Clear,340,2011-11-16 14:53:00
9:53 AM,39.2,23.0,52,30.08,10.0,NNW,16.1,23.0,N/A,,Clear,330,2011-11-16 15:53:00
10:53 AM,41.0,25.0,53,30.10,10.0,NNW,17.3,-,N/A,,Clear,340,2011-11-16 16:53:00
11:53 AM,43.0,24.1,47,30.08,10.0,NNW,18.4,-,N/A,,Clear,340,2011-11-16 17:53:00
12:53 PM,43.0,21.0,42,30.09,10.0,NNW,19.6,27.6,N/A,,Clear,340,2011-11-16 18:53:00
1:53 PM,44.1,19.0,37,30.10,10.0,NNW,21.9,28.8,N/A,,Clear,330,2011-11-16 19:53:00
2:53 PM,41.0,19.9,43,30.13,10.0,NNW,19.6,24.2,N/A,,Clear,330,2011-11-16 20:53:00
3:53 PM,39.9,19.0,43,30.15,10.0,NNW,13.8,-,N/A,,Clear,340,2011-11-16 21:53:00
4:53 PM,37.9,19.0,47,30.17,10.0,NNW,11.5,-,N/A,,Clear,330,2011-11-16 22:53:00
5:53 PM,37.0,23.0,57,30.19,10.0,NW,6.9,-,N/A,,Clear,320,2011-11-16 23:53:00
6:53 PM,35.1,23.0,61,30.20,10.0,NW,6.9,-,N/A,,Clear,310,2011-11-17 00:53:00
7:53 PM,34.0,24.1,67,30.20,10.0,NW,6.9,-,N/A,,Clear,310,2011-11-17 01:53:00
8:53 PM,34.0,24.1,67,30.21,10.0,NW,6.9,-,N/A,,Clear,310,2011-11-17 02:53:00
9:53 PM,34.0,24.1,67,30.21,10.0,NW,6.9,-,N/A,,Overcast,310,2011-11-17 03:53:00
10:53 PM,32.0,23.0,69,30.22,10.0,WNW,5.8,-,N/A,,Mostly Cloudy,290,2011-11-17 04:53:00
11:53 PM,28.9,21.9,75,30.22,10.0,West,5.8,-,N/A,,Clear,270,2011-11-17 05:53:00